Home   Weather   Cleveland   Past weeks

Flag for USA Past Weather in Cleveland, Tennessee, USA — Yesterday and Last 2 Weeks

66 °F

Passing clouds.

Feels Like: 66 °F
Forecast: 60 / 77 °F
Wind: 7 mph from South

Location: Lovell Field

Current Time: Oct 27, 2016 at 2:59:48 AM

Latest Report: Oct 27, 2016 at 1:53 AM

Visibility: 10 mi

Pressure: 30.24 "Hg

Humidity: 61%

Dew Point: 52 °F

Location of ClevelandLocation

Past Weather in Cleveland — Graph


Cleveland Temperature Yesterday

Maximum temperature yesterday: 77 °F (at 2:53 PM)
Minimum temperature yesterday: 48 °F (at 5:53 AM)
Average temperature yesterday: 63 °F

High & Low Weather Summary for the Past Weeks

High88 °F (Oct 19, 2:53 PM)90% (Oct 17, 5:53 AM)30.33 "Hg (Oct 17, 5:53 AM)
Low40 °F (Oct 23, 7:53 AM)21% (Oct 12, 5:53 PM)29.86 "Hg (Oct 21, 12:53 AM)
Average67 °F58%30.14 "Hg
* Reported Oct 12 1:53 AM — Oct 27 1:53 AM, Cleveland, Weather by CustomWeather, © 2016

Note: Actual official high and low records may vary slightly from our data, if they occured in-between our weather recording intervals... More about our weather records


Cleveland Weather History for the Previous 24 Hours

Scroll right to see more
Time TempWeatherWind HumidityBarometerVisibility
1:53 AM
Thu, Oct 27
66 °FPassing clouds.7 mph61%30.24 "Hg10 mi
12:53 AM63 °FClear.3 mph70%30.25 "Hg10 mi
11:53 PM
Wed, Oct 26
67 °FOvercast.5 mph57%30.24 "Hg10 mi
10:53 PM68 °FMostly cloudy.3 mph57%30.24 "Hg10 mi
9:53 PM69 °FMostly cloudy.5 mph55%30.22 "Hg10 mi
8:53 PM71 °FMostly cloudy.6 mph51%30.22 "Hg10 mi
7:53 PM72 °FPassing clouds.3 mph49%30.21 "Hg10 mi
6:53 PM74 °FPartly cloudy.5 mph46%30.20 "Hg10 mi
5:53 PM76 °FPartly sunny.7 mph43%30.21 "Hg10 mi
4:53 PM77 °FPartly sunny.9 mph40%30.22 "Hg10 mi
3:53 PM76 °FPartly sunny.7 mph45%30.22 "Hg10 mi
2:53 PM77 °FBroken clouds.8 mph44%30.24 "Hg10 mi
1:53 PM75 °FBroken clouds.12 mph48%30.26 "Hg10 mi
12:53 PM72 °FBroken clouds.12 mph52%30.30 "Hg10 mi
11:53 AM70 °FBroken clouds.13 mph55%30.32 "Hg10 mi
10:53 AM64 °FPartly sunny.3 mph54%30.33 "Hg10 mi
9:53 AM57 °FScattered clouds.No wind64%30.33 "Hg10 mi
8:53 AM52 °FBroken clouds.No wind77%30.32 "Hg10 mi
7:59 AM48 °FPartly sunny.No wind86%30.32 "Hg10 mi
6:53 AM48 °FPassing clouds.No wind86%30.31 "Hg10 mi
5:53 AM48 °FPassing clouds.No wind86%30.30 "Hg10 mi
4:53 AM50 °FClear.No wind83%30.29 "Hg10 mi
3:53 AM51 °FClear.No wind77%30.28 "Hg10 mi
2:53 AM52 °FClear.No wind80%30.27 "Hg10 mi
Weather by CustomWeather, © 2016

See weather overviewHow to use our weather pages